This is the latest recevied weather packets stored in our database for station/object N1HQ. If no packets are shown the sender has not sent any weather packets the latest 10 day(s).
| Time | Temp. | Humidity | Pressure | Rain* | Wind** | Luminosity | Snow |
|---|---|---|---|---|---|---|---|
| 1777757522 | 22.78° C | 69% | 1009.9 hPa | 0 mm | - | - | - |
| 1777757268 | 22.78° C | 68% | 1009.8 hPa | 0 mm | - | - | - |
| 1777756968 | 22.78° C | 68% | 1009.7 hPa | 0 mm | - | - | - |
| 1777756688 | 22.78° C | 68% | 1009.7 hPa | 0 mm | - | - | - |
| 1777756433 | 22.78° C | 70% | 1009.7 hPa | 0 mm | - | - | - |
| 1777756158 | 22.22° C | 70% | 1009.8 hPa | 0 mm | - | - | - |
| 1777755858 | 22.22° C | 70% | 1009.8 hPa | 0 mm | - | - | - |
| 1777755615 | 22.22° C | 71% | 1009.7 hPa | 0 mm | - | - | - |
| 1777755069 | 22.22° C | 71% | 1009.8 hPa | 0 mm | - | - | - |
| 1777754803 | 21.67° C | 72% | 1009.9 hPa | 0 mm | - | - | - |
| 1777754543 | 21.67° C | 71% | 1010 hPa | 0 mm | - | - | - |
| 1777754288 | 21.67° C | 72% | 1010.1 hPa | 0 mm | - | - | - |
| 1777754028 | 22.22° C | 74% | 1010 hPa | 0 mm | - | - | - |
| 1777753771 | 21.67° C | 76% | 1010.1 hPa | 0 mm | - | - | - |
| 1777753513 | 21.11° C | 76% | 1010.1 hPa | 0 mm | - | - | - |
| 1777753220 | 21.11° C | 78% | 1010 hPa | 0 mm | - | - | - |
| 1777752953 | 20.56° C | 78% | 1009.9 hPa | 0 mm | - | - | - |
| 1777752668 | 20.56° C | 77% | 1010 hPa | 0 mm | - | - | - |
| 1777752373 | 20.56° C | 78% | 1010.1 hPa | 0 mm | - | - | - |
| 1777752113 | 20.56° C | 79% | 1010 hPa | 0 mm | - | - | - |
| 1777751870 | 20.56° C | 79% | 1010.2 hPa | 0 mm | - | - | - |
| 1777751612 | 20.56° C | 80% | 1010.2 hPa | 0 mm | - | - | - |
| 1777751363 | 20.56° C | 78% | 1010.3 hPa | 0 mm | - | - | - |
| 1777751098 | 21.11° C | 78% | 1010.2 hPa | 0 mm | - | - | - |
| 1777750803 | 21.11° C | 77% | 1010.2 hPa | 0 mm | - | - | - |
* Rain latest hour (hover to see other rain measurements)
** Current wind speed in m/s (hover to see current wind gust speed)